Change the Weather History Date:

Saturday, October 26, 2013

  Actual Average Record
Temperature  
Mean Temperature 52 °F 56 °F  
Max Temperature 66 °F 65 °F 86 °F (1940)
Min Temperature 38 °F 46 °F 22 °F (1942)
Degree Days  
Heating Degree Days 13 10  
Month to date heating degree days 192 179  
Since 1 July heating degree days 195 220  
Cooling Degree Days 0 1  
Month to date cooling degree days 63 40  
Year to date cooling degree days 1728 1641  
Growing Degree Days 4 (Base 50)    
Moisture  
Dew Point 31 °F    
Average Humidity 45    
Maximum Humidity 56    
Minimum Humidity 34    
Precipitation  
Precipitation 0.00 in 0.10 in 2.76 in (1919)
Month to date precipitation 1.46 2.79  
Year to date precipitation 38.81 33.67  
Snow  
Snow 0.00 in 0.00 in T in (1898)
Month to date snowfall 0.0 0.0  
Since 1 July snowfall 0.0 0.0  
Since 1 September snowfall 0.0 0.0  
Snow Depth 0.00 in    
Sea Level Pressure  
Sea Level Pressure 30.12 in    
Wind  
Wind Speed 10 mph (West)    
Max Wind Speed 17 mph    
Max Gust Speed 29 mph    
Visibility 10 miles    
Events      
T = Trace of Precipitation, MM = Missing Value Source: NWS Daily Summary

Daily Weather History Graph

Daily Weather History Graph

Search for Another Location

Airport or City:

Trip Planner

Search our weather history database for the weather conditions in past years. The results will help you decide how hot, cold, wet, or windy it might be!

Date:

Astronomy

Oct. 26, 2013 Rise Set
Actual Time 7:22 AM CDT 6:07 PM CDT
Civil Twilight 6:55 AM CDT 6:35 PM CDT
Nautical Twilight 6:23 AM CDT 7:06 PM CDT
Astronomical Twilight 5:52 AM CDT 7:37 PM CDT
Moon No Moon Rise 1:37 PM CDT (10/26)
Length of Visible Light 11h 40m
Length of Day
10h 45m
Waning Gibbous, 53% of the Moon is Illuminated
Oct 26
Waning Gibbous
Oct 26
Last Quarter
Nov 3
New
Nov 9
First Quarter
Nov 17
Full

Hourly Weather History & Observations

Time (CDT) Temp. Windchill Dew Point Humidity Pressure Visibility Wind Dir Wind Speed Gust Speed Precip Events Conditions
12:51 AM 43.0 °F 41.3 °F 26.1 °F 51% 30.22 in 10.0 mi South 3.5 mph - N/A   Clear
1:51 AM 43.0 °F 38.2 °F 27.0 °F 53% 30.20 in 10.0 mi SSW 8.1 mph - N/A   Clear
2:51 AM 44.1 °F 39.0 °F 27.0 °F 51% 30.19 in 10.0 mi SSW 9.2 mph - N/A   Mostly Cloudy
3:51 AM 45.0 °F 40.1 °F 27.0 °F 49% 30.17 in 10.0 mi SSW 9.2 mph - N/A   Overcast
4:51 AM 45.0 °F 40.1 °F 27.0 °F 49% 30.15 in 10.0 mi SW 9.2 mph 18.4 mph N/A   Overcast
5:51 AM 46.0 °F 41.9 °F 28.0 °F 50% 30.14 in 10.0 mi SW 8.1 mph - N/A   Mostly Cloudy
6:51 AM 44.1 °F 39.5 °F 28.9 °F 55% 30.12 in 10.0 mi SSW 8.1 mph - N/A   Partly Cloudy
8:51 AM 48.9 °F - 33.1 °F 54% 30.10 in 10.0 mi WSW 11.5 mph - N/A   Mostly Cloudy
9:51 AM 53.1 °F - 36.0 °F 52% 30.09 in 10.0 mi West 17.3 mph 28.8 mph N/A   Scattered Clouds
10:51 AM 57.0 °F - 37.9 °F 49% 30.07 in 10.0 mi West 16.1 mph 25.3 mph N/A   Partly Cloudy
11:51 AM 61.0 °F - 39.9 °F 46% 30.07 in 10.0 mi West 15.0 mph 21.9 mph N/A   Scattered Clouds
12:51 PM 62.1 °F - 39.9 °F 44% 30.05 in 10.0 mi West 15.0 mph - N/A   Scattered Clouds
1:51 PM 64.0 °F - 39.9 °F 41% 30.03 in 10.0 mi West 17.3 mph 21.9 mph N/A   Scattered Clouds
2:51 PM 66.0 °F - 39.9 °F 38% 30.02 in 10.0 mi WNW 12.7 mph 23.0 mph N/A   Scattered Clouds
3:51 PM 64.0 °F - 37.9 °F 38% 30.03 in 10.0 mi NW 17.3 mph 24.2 mph N/A   Scattered Clouds
4:51 PM 63.0 °F - 33.1 °F 33% 30.05 in 10.0 mi NW 16.1 mph 20.7 mph N/A   Scattered Clouds
5:51 PM 60.1 °F - 33.1 °F 36% 30.07 in 10.0 mi NW 9.2 mph - N/A   Scattered Clouds
6:51 PM 55.0 °F - 28.0 °F 35% 30.11 in 10.0 mi NNW 8.1 mph - N/A   Scattered Clouds
7:51 PM 50.0 °F - 27.0 °F 41% 30.14 in 10.0 mi North 6.9 mph - N/A   Partly Cloudy
8:51 PM 46.0 °F 42.5 °F 27.0 °F 47% 30.15 in 10.0 mi North 6.9 mph - N/A   Clear
9:51 PM 46.0 °F 43.1 °F 25.0 °F 44% 30.16 in 10.0 mi North 5.8 mph - N/A   Clear
10:51 PM 46.0 °F - 25.0 °F 44% 30.15 in 10.0 mi Calm Calm - N/A   Clear
11:51 PM 44.1 °F - 27.0 °F 51% 30.14 in 10.0 mi Calm Calm - N/A   Clear